Weather History for Tucson, AZ

Change the Weather History Date:

Monday, September 3, 2012

  Actual Average Record
Temperature  
Mean Temperature 85 °F 84 °F  
Max Temperature 97 °F 97 °F 107 °F (1948)
Min Temperature 73 °F 72 °F 58 °F (1913)
Degree Days  
Heating Degree Days 0 0  
Month to date heating degree days 0 0  
Since 1 July heating degree days 0 0  
Cooling Degree Days 20 20  
Month to date cooling degree days 67 60  
Year to date cooling degree days 2812 2470  
Growing Degree Days 35 (Base 50)    
Moisture  
Dew Point 63 °F    
Average Humidity 51    
Maximum Humidity 68    
Minimum Humidity 33    
Precipitation  
Precipitation T in 0.05 in 1.72 in (1996)
Month to date precipitation T 0.17  
Year to date precipitation 6.32 8.08  
Snow  
Snow 0.00 in - - ()
Month to date snowfall 0.0  
Snow Depth 0.00 in    
Sea Level Pressure  
Sea Level Pressure 29.92 in    
Wind  
Wind Speed 9 mph (SSW)    
Max Wind Speed 30 mph    
Max Gust Speed 35 mph    
Visibility 10 miles    
Events Rain    
T = Trace of Precipitation, MM = Missing Value Source: NWS Daily Summary

Daily Weather History Graph

Daily Weather History Graph

Search for Another Location

Airport:

Trip Planner

Search our weather history database for the weather conditions in past years. The results will help you decide how hot, cold, wet, or windy it might be!

Date:

Astronomy

Sep. 03, 2012 Rise Set
Actual Time 6:00 AM MST 6:44 PM MST
Civil Twilight 5:35 AM MST 7:09 PM MST
Nautical Twilight 5:06 AM MST 7:38 PM MST
Astronomical Twilight 4:36 AM MST 8:08 PM MST
Moon 8:22 PM MST (9/3) 8:56 AM MST (9/3)
Length of Visible Light 13h 33m
Length of Day
12h 44m
Waning Gibbous, 90% of the Moon is Illuminated
Sep 3
Waning Gibbous
Sep 8
Last Quarter
Sep 15
New
Sep 22
First Quarter
Sep 29
Full

Hourly Weather History & Observations

Time (MST) Temp. Heat Index Dew Point Humidity Pressure Visibility Wind Dir Wind Speed Gust Speed Precip Events Conditions
12:53 AM 78.1 °F - 64.0 °F 62% 29.86 in 10.0 mi South 8.1 mph - N/A   Clear
1:53 AM 78.1 °F - 62.1 °F 58% 29.85 in 10.0 mi South 6.9 mph - N/A   Clear
2:53 AM 78.1 °F - 61.0 °F 56% 29.86 in 10.0 mi ESE 9.2 mph - N/A   Clear
3:53 AM 79.0 °F - 60.1 °F 52% 29.88 in 10.0 mi SE 8.1 mph - N/A   Clear
4:53 AM 75.0 °F - 62.1 °F 64% 29.91 in 10.0 mi Calm Calm - N/A   Clear
5:53 AM 73.0 °F - 62.1 °F 68% 29.94 in 10.0 mi SE 5.8 mph - N/A   Clear
6:53 AM 75.9 °F - 62.1 °F 62% 29.96 in 10.0 mi SSE 3.5 mph - N/A   Clear
7:53 AM 80.1 °F 81.7 °F 64.0 °F 58% 29.97 in 10.0 mi SSW 4.6 mph - N/A   Clear
8:53 AM 84.0 °F 86.3 °F 66.0 °F 55% 29.97 in 10.0 mi Calm Calm - N/A   Clear
9:53 AM 89.1 °F 88.8 °F 60.1 °F 38% 29.96 in 10.0 mi North 6.9 mph - N/A   Clear
10:53 AM 90.0 °F 90.0 °F 61.0 °F 38% 29.96 in 10.0 mi Variable 5.8 mph - N/A   Clear
11:53 AM 91.0 °F 92.6 °F 64.0 °F 41% 29.94 in 10.0 mi WSW 3.5 mph - N/A   Clear
12:53 PM 93.0 °F 94.6 °F 64.0 °F 38% 29.91 in 10.0 mi West 10.4 mph - N/A   Clear
1:53 PM 96.1 °F 98.3 °F 64.0 °F 35% 29.87 in 10.0 mi WNW 13.8 mph 21.9 mph N/A   Partly Cloudy
2:53 PM 96.1 °F 97.3 °F 63.0 °F 33% 29.85 in 10.0 mi West 10.4 mph 20.7 mph N/A   Scattered Clouds
3:53 PM 96.1 °F 96.9 °F 62.1 °F 32% 29.83 in 10.0 mi WNW 10.4 mph 20.7 mph N/A   Partly Cloudy
4:53 PM 93.9 °F 95.2 °F 63.0 °F 36% 29.84 in 10.0 mi West 11.5 mph 23.0 mph N/A   Partly Cloudy
5:49 PM 87.8 °F 88.5 °F 62.6 °F 43% 30.01 in 10.0 mi South 18.4 mph - N/A   Partly Cloudy
5:53 PM 87.1 °F 87.5 °F 62.1 °F 43% 29.87 in 10.0 mi South 12.7 mph - N/A   Partly Cloudy
6:53 PM 88.0 °F 89.3 °F 64.0 °F 45% 29.88 in 10.0 mi WSW 12.7 mph 18.4 mph N/A   Clear
7:53 PM 82.0 °F 83.1 °F 63.0 °F 52% 29.92 in 10.0 mi SSE 10.4 mph - N/A   Partly Cloudy
8:53 PM 82.0 °F 82.7 °F 61.0 °F 49% 29.95 in 10.0 mi SSE 11.5 mph - N/A   Partly Cloudy
9:53 PM 78.1 °F - 64.0 °F 62% 29.97 in 10.0 mi South 11.5 mph - N/A   Mostly Cloudy
10:53 PM 77.0 °F - 63.0 °F 62% 30.01 in 10.0 mi SSE 21.9 mph - N/A   Mostly Cloudy
11:53 PM 75.0 °F - 66.0 °F 73% 30.02 in 10.0 mi South 12.7 mph - 0.00 in Rain Light Rain